• In Netherlands
  • List of Countries
  • For 7 days
  • Water Temperature
  • Satellite Maps
  • Weather Map
  • Weather Widgets
  • user-avatar
    Login

    Hourly Weather Kalgoorlie

    Today, 17 November, Friday

    Time Temperature Precipitation Wind Pressure Humidity
    00:00 +27°C° 0 mm 10 mps 724 mmHg 23%
    01:00 +27°C° 0 mm 10 mps 724 mmHg 24%
    02:00 +26°C° 0 mm 10 mps 723 mmHg 25%
    03:00 +26°C° 0 mm 9 mps 723 mmHg 27%
    04:00 +24°C° 0 mm 9 mps 723 mmHg 29%
    05:00 +24°C° 0 mm 8 mps 723 mmHg 31%
    06:00 +27°C° 0 mm 9 mps 724 mmHg 28%
    07:00 +29°C° 0 mm 10 mps 724 mmHg 26%
    08:00 +32°C° 0 mm 12 mps 724 mmHg 26%
    09:00 +34°C° 0 mm 12 mps 723 mmHg 22%
    10:00 +38°C° 0 mm 12 mps 723 mmHg 18%
    11:00 +42°C° 0 mm 12 mps 723 mmHg 14%
    12:00 +42°C° 0 mm 12 mps 722 mmHg 14%
    13:00 +42°C° 0 mm 12 mps 722 mmHg 14%
    14:00 +43°C° 0 mm 12 mps 721 mmHg 15%
    15:00 +42°C° 0 mm 11 mps 721 mmHg 16%
    16:00 +40°C° 0 mm 10 mps 721 mmHg 16%
    17:00 +40°C° 0 mm 10 mps 721 mmHg 17%
    18:00 +39°C° 0.1 mm 8 mps 721 mmHg 19%
    19:00 +38°C° 0.1 mm 7 mps 721 mmHg 21%
    20:00 +36°C° 0 mm 6 mps 721 mmHg 21%
    21:00 +34°C° 0 mm 7 mps 722 mmHg 25%
    22:00 +33°C° 0 mm 8 mps 722 mmHg 28%
    23:00 +32°C° 0 mm 9 mps 722 mmHg 32%

    Tomorrow, 18 November, Saturday

    Time Temperature Precipitation Wind Pressure Humidity
    00:00 +29°C° 0 mm 8 mps 722 mmHg 37%
    01:00 +28°C° 0 mm 7 mps 722 mmHg 41%
    02:00 +26°C° 0 mm 6 mps 722 mmHg 46%
    03:00 +26°C° 0 mm 5 mps 723 mmHg 48%
    04:00 +25°C° 0 mm 4 mps 723 mmHg 49%
    05:00 +25°C° 0 mm 2 mps 723 mmHg 51%
    06:00 +26°C° 0 mm 2 mps 724 mmHg 47%
    07:00 +27°C° 0 mm 3 mps 724 mmHg 43%
    08:00 +28°C° 0 mm 3 mps 724 mmHg 39%
    09:00 +30°C° 0 mm 4 mps 724 mmHg 35%
    10:00 +32°C° 0 mm 6 mps 724 mmHg 32%
    11:00 +34°C° 0 mm 7 mps 724 mmHg 28%
    12:00 +32°C° 0.1 mm 8 mps 723 mmHg 31%
    13:00 +31°C° 0.1 mm 9 mps 723 mmHg 34%
    14:00 +29°C° 0.1 mm 10 mps 723 mmHg 37%
    15:00 +29°C° 0.1 mm 10 mps 723 mmHg 35%
    16:00 +29°C° 0.1 mm 10 mps 723 mmHg 33%
    17:00 +29°C° 0.1 mm 10 mps 723 mmHg 31%
    18:00 +28°C° 0 mm 8 mps 724 mmHg 33%
    19:00 +27°C° 0 mm 7 mps 724 mmHg 34%
    20:00 +26°C° 0 mm 5 mps 724 mmHg 35%
    21:00 +26°C° 0 mm 5 mps 725 mmHg 35%
    22:00 +25°C° 0 mm 4 mps 725 mmHg 35%
    23:00 +23°C° 0 mm 4 mps 725 mmHg 35%

    Day after tomorrow, 19 November, Sunday

    Time Temperature Precipitation Wind Pressure Humidity
    00:00 +23°C° 0 mm 4 mps 725 mmHg 38%
    01:00 +22°C° 0 mm 4 mps 725 mmHg 41%
    02:00 +21°C° 0 mm 3 mps 725 mmHg 45%
    03:00 +21°C° 0 mm 3 mps 726 mmHg 49%
    04:00 +20°C° 0 mm 3 mps 726 mmHg 54%
    05:00 +20°C° 0 mm 2 mps 726 mmHg 58%
    06:00 +21°C° 0 mm 2 mps 726 mmHg 53%
    07:00 +24°C° 0 mm 2 mps 727 mmHg 48%
    08:00 +25°C° 0 mm 2 mps 727 mmHg 44%
    09:00 +27°C° 0 mm 2 mps 727 mmHg 38%
    10:00 +28°C° 0 mm 2 mps 727 mmHg 32%
    11:00 +30°C° 0 mm 1 mps 727 mmHg 27%
    12:00 +31°C° 0 mm 1 mps 726 mmHg 24%
    13:00 +32°C° 0 mm 1 mps 726 mmHg 22%
    14:00 +33°C° 0 mm 1 mps 725 mmHg 20%
    15:00 +33°C° 0 mm 1 mps 725 mmHg 19%
    16:00 +33°C° 0 mm 1 mps 725 mmHg 19%
    17:00 +33°C° 0 mm 1 mps 725 mmHg 18%
    18:00 +32°C° 0 mm 2 mps 726 mmHg 19%
    19:00 +32°C° 0 mm 2 mps 726 mmHg 20%
    20:00 +31°C° 0 mm 3 mps 726 mmHg 21%
    21:00 +30°C° 0 mm 4 mps 726 mmHg 25%
    22:00 +29°C° 0 mm 5 mps 727 mmHg 29%
    23:00 +28°C° 0 mm 6 mps 727 mmHg 34%

    20 November, Monday

    Time Temperature Precipitation Wind Pressure Humidity
    00:00 +27°C° 0 mm 6 mps 726 mmHg 38%
    01:00 +26°C° 0 mm 6 mps 726 mmHg 43%
    02:00 +24°C° 0 mm 7 mps 726 mmHg 48%
    03:00 +24°C° 0 mm 6 mps 726 mmHg 51%
    04:00 +23°C° 0 mm 6 mps 726 mmHg 53%
    05:00 +23°C° 0 mm 5 mps 726 mmHg 55%
    06:00 +26°C° 0 mm 6 mps 726 mmHg 49%
    07:00 +27°C° 0 mm 6 mps 727 mmHg 43%
    08:00 +29°C° 0 mm 6 mps 727 mmHg 37%
    09:00 +32°C° 0 mm 6 mps 727 mmHg 31%
    10:00 +34°C° 0 mm 6 mps 727 mmHg 24%
    11:00 +36°C° 0 mm 6 mps 726 mmHg 17%
    12:00 +38°C° 0 mm 6 mps 726 mmHg 15%
    13:00 +39°C° 0 mm 6 mps 725 mmHg 13%
    14:00 +40°C° 0 mm 6 mps 724 mmHg 11%
    15:00 +40°C° 0 mm 6 mps 724 mmHg 10%
    16:00 +40°C° 0 mm 6 mps 724 mmHg 10%
    17:00 +40°C° 0 mm 6 mps 724 mmHg 10%
    18:00 +38°C° 0 mm 6 mps 724 mmHg 12%
    19:00 +35°C° 0 mm 6 mps 725 mmHg 14%
    20:00 +33°C° 0 mm 7 mps 725 mmHg 16%
    21:00 +30°C° 0 mm 7 mps 725 mmHg 26%
    22:00 +28°C° 0 mm 8 mps 726 mmHg 36%
    23:00 +24°C° 0 mm 9 mps 726 mmHg 47%

    21 November, Tuesday

    Time Temperature Precipitation Wind Pressure Humidity
    00:00 +23°C° 0 mm 8 mps 726 mmHg 51%
    01:00 +22°C° 0 mm 8 mps 726 mmHg 55%
    02:00 +21°C° 0 mm 8 mps 726 mmHg 59%
    03:00 +20°C° 0 mm 8 mps 726 mmHg 62%
    04:00 +20°C° 0 mm 8 mps 726 mmHg 64%
    05:00 +18°C° 0 mm 8 mps 727 mmHg 67%
    06:00 +20°C° 0 mm 8 mps 727 mmHg 62%
    07:00 +21°C° 0 mm 8 mps 728 mmHg 57%
    08:00 +22°C° 0 mm 9 mps 729 mmHg 53%
    09:00 +24°C° 0 mm 8 mps 729 mmHg 46%
    10:00 +27°C° 0 mm 8 mps 729 mmHg 40%
    11:00 +29°C° 0 mm 8 mps 729 mmHg 34%
    12:00 +31°C° 0 mm 8 mps 728 mmHg 31%
    13:00 +32°C° 0 mm 8 mps 728 mmHg 28%
    14:00 +32°C° 0 mm 7 mps 728 mmHg 25%
    15:00 +32°C° 0 mm 8 mps 728 mmHg 27%
    16:00 +31°C° 0 mm 9 mps 728 mmHg 30%
    17:00 +29°C° 0 mm 9 mps 729 mmHg 32%
    18:00 +27°C° 0 mm 9 mps 729 mmHg 36%
    19:00 +24°C° 0 mm 10 mps 730 mmHg 41%
    20:00 +23°C° 0 mm 10 mps 731 mmHg 45%
    21:00 +21°C° 0 mm 10 mps 731 mmHg 48%
    22:00 +19°C° 0 mm 10 mps 731 mmHg 51%
    23:00 +17°C° 0 mm 10 mps 732 mmHg 55%

    22 November, Wednesday

    Time Temperature Precipitation Wind Pressure Humidity
    00:00 +16°C° 0 mm 9 mps 732 mmHg 57%
    01:00 +15°C° 0 mm 8 mps 732 mmHg 60%
    02:00 +13°C° 0 mm 8 mps 731 mmHg 63%
    03:00 +12°C° 0 mm 7 mps 732 mmHg 63%
    04:00 +11°C° 0 mm 7 mps 732 mmHg 64%
    05:00 +11°C° 0 mm 6 mps 732 mmHg 64%
    06:00 +12°C° 0 mm 7 mps 732 mmHg 57%
    07:00 +15°C° 0 mm 7 mps 733 mmHg 49%
    08:00 +16°C° 0 mm 7 mps 733 mmHg 42%
    09:00 +19°C° 0 mm 6 mps 733 mmHg 35%
    10:00 +22°C° 0 mm 6 mps 732 mmHg 28%
    11:00 +24°C° 0 mm 6 mps 732 mmHg 21%
    12:00 +26°C° 0 mm 6 mps 731 mmHg 19%
    13:00 +28°C° 0 mm 6 mps 731 mmHg 17%
    14:00 +29°C° 0 mm 6 mps 730 mmHg 15%
    15:00 +29°C° 0 mm 6 mps 730 mmHg 15%
    16:00 +29°C° 0 mm 6 mps 730 mmHg 15%
    17:00 +29°C° 0 mm 6 mps 730 mmHg 15%
    18:00 +28°C° 0 mm 7 mps 730 mmHg 19%
    19:00 +26°C° 0 mm 7 mps 731 mmHg 22%
    20:00 +24°C° 0 mm 7 mps 731 mmHg 26%
    21:00 +22°C° 0 mm 8 mps 732 mmHg 32%
    22:00 +21°C° 0 mm 8 mps 732 mmHg 38%
    23:00 +18°C° 0 mm 8 mps 732 mmHg 44%
    Show more